TJMZ/MAZ METAR and TAF weather

Enter ICAO airport designator
Station Type Date Time Source
TJMZ METAR 2017/08/10 15:50 UTC NOAA

TJMZ 101550Z 11009KT 10SM SCT050 33/24


Station Type Date Time Source
TJMZ Decoded METAR 2017/08/10 15:50 UTC NOAA

Mayaguez, Eugenio Maria de Hostos Airport, PR, United States (TJMZ) 18-16N 067-09W
Aug 10, 2017 - 11:50 AM EDT / 2017.08.10 1550 UTC
Wind: from the ESE (110 degrees) at 10 MPH (9 KT):0
Visibility: 10 mile(s):0
Sky conditions: partly cloudy
Temperature: 91 F (33 C)
Heat index: 101.5 F (38.6 C):1
Dew Point: 75 F (24 C)
Relative Humidity: 59%
ob: TJMZ 101550Z 11009KT 10SM SCT050 33/24
cycle: 16

Station Type Date Time Source
TJMZ TAF 2019/06/27 06:42 UTC NOAA

TAF TJMZ 270538Z 2706/2806 07004KT P6SM SKC
FM271400 24008KT P6SM SCT030 SCT060
FM271630 28010KT P6SM VCSH SCT025 BKN040
FM271730 28008KT P6SM VCTS SCT025 BKN030CB BKN060
FM272200 06006KT P6SM VCSH SCT025 BKN040 BKN080
FM280300 07006KT P6SM SKC
AMD NOT SKED

Example: see airport list